ONEWEB-0007, 44060

Orbit data source: Space-Track

ONEWEB-0007, 44060 is a payload satellite owned by One Web (UK) in LEO that was launched on Wed, 27 Feb 2019 UTC via a SOYUZ-ST-B launch vehicle from the French Guiana (FRGUI). Payload-class satellites include a variety of spacecraft equipped with specific instruments for various scientific and technological missions. These include communications satellites like Starlink; space stations such as the ISS; scientific satellites like the Hubble; Earth observation satellites from companies like Planet Labs, Umbra, and HawkEye 360; GPS; miniature CubeSats for education and research; and military/defense satellites.

Loading next visibility...
Identifier
44060, 2019-010D
Orbit
LEO
Country
Flag of UKUK
Related business
Manufacturer
Airbus/Toulouse
Mission
Operational Commercial Communications
Bus & Motor
ARROW, Unknown motor
Mass
148 kg wet, ~140 kg dry
Launch date (UTC)
2019-02-27 (7 years ago)
Launch vehicle
SOYUZ-ST-B
Launch site
French Guiana (FRGUI)
Object type
Payload
Rocket body
Debris
Shape & HBR
Trap Box + 2 Pan, 6.7 m
Radar Cross Section
3.464 m², Large (>1 m²)

Expand to show TLE details & history
Last TLE update: 9 hours ago

TLE from 9 hours ago
0 ONEWEB-0007
1 44060U 19010D   26038.20494454  .00000199  00000-0  49367-3 0  9997
2 44060  87.8975 285.1772 0001192  79.2269 280.8995 13.15550149334285
Epoch: 2026-02-07T04:55Z
TLE epoch observation values (Epoch: 2026-02-07T04:55:07.208Z)
Latitude
-0.00005°
Longitude
74.06535°
Altitude
1,204.489 km
Speed
7.252 km/s
True Right ascension
19h 00m 42s
True Declination
0° 00' 00"
Sunlit
Object was in daylight at epoch
Visualization orbit readout
Latitude
Unknown
Longitude
Unknown
Altitude
Unknown
Speed
Unknown
Apparent Right ascension
Unknown
Apparent Declination
Unknown
Sunlit
N/A
Visualization observer readout
Local Sidereal Time
16:22:50
Azimuth
Unknown
Elevation
Unknown
Doppler factor
Unknown
Orbital elements
Apogee altitude
1,199.78 km
Perigee altitude
1,197.974 km
Semi-major axis
7,577.014 km
Eccentricity
0.00012
Inclination
87.8975°
RAAN
285.1772°
Arg. of periapsis
79.2269°
True anomaly
280.88609°
Mean anomaly
280.8995°
Eccentric anomaly
280.89279°
Mean motion
3.29076 °/min
Orbital period
109.4 mins
BSTAR
0.00049367
Loading maneuver chart data...
Computing Atmospheric mass density...
Loading historical data...
Loading historical data...
Loading historical data...
Loading historical data...
Loading historical data...
Loading historical data...
Loading historical data...
Other satellites on launch #10 in the year 2019 (2019-02-27 UTC)

Documentation

Showing up to 5 results
|